Location: Kolin
(50.0330°N, 15.2000°E)
Time: 10:04:43
(UTC+02:00)

ISS - Pass Details

Date: 20 May 2021
Orbit: 417 x 422 km, 51.6° (Epoch: 13 June)

Event Time Altitude Azimuth Distance (km) Brightness Sun altitude
Rises 22:55:23 0° 275° (W) 2,365 0.6 -14.9°
Reaches altitude 10° 22:57:30 10° 278° (W) 1,502 -0.4 -15.1°
Maximum altitude 23:00:51 64° 1° (N) 471 -3.3 -15.3°
Drops below altitude 10° 23:04:12 10° 84° (E) 1,505 -1.2 -15.6°
Enters shadow 23:04:20 - 84° (E) 1,558 -1.1 -15.6°
